Location: Warszawa
(52.2500°N, 21.0000°E)
Time: 10:44:00
(UTC+01:00)

Transit 2A - All Passes

Search period start: 28 January 2023 00:00
Search period end: 07 February 2023 00:00
Orbit: 594 x 962 km, 66.7° (Epoch: 27 January)

Date Brightness Start Highest point End Pass type
(mag) Time Alt. Az. Time Alt. Az. Time Alt. Az.
28 Jan - 00:58:27 10° NNW 01:03:47 36° NE 01:09:27 10° E night (unlit)
28 Jan - 02:41:34 10° NW 02:47:31 76° SW 02:53:49 10° SSE night (unlit)
28 Jan - 04:25:58 10° WNW 04:29:59 18° WSW 04:34:06 10° SSW night (unlit)
28 Jan - 17:28:01 10° SSE 17:31:57 25° ESE 17:36:15 10° NE visible
28 Jan - 19:09:44 10° SW 19:14:38 67° NW 19:20:09 10° NE visible
28 Jan - 20:54:38 10° WNW 20:58:53 24° NNW 21:03:30 10° NNE visible
28 Jan - 22:40:08 10° NW 22:44:02 19° N 22:48:11 10° NE night (unlit)
29 Jan - 00:23:56 10° NNW 00:29:02 30° NNE 00:34:26 10° E night (unlit)
29 Jan - 02:07:03 10° NW 02:13:00 85° NE 02:19:21 10° SE night (unlit)
29 Jan - 03:50:56 10° WNW 03:55:44 25° WSW 04:00:42 10° SSW night (unlit)
29 Jan - 16:54:27 10° SSE 16:57:44 18° ESE 17:01:15 10° ENE visible
29 Jan - 18:35:11 10° SW 18:40:05 87° NW 18:45:37 10° NE visible
29 Jan - 20:19:37 10° W 20:24:04 28° NNW 20:28:56 10° NNE visible
29 Jan - 22:05:16 10° NW 22:09:07 19° N 22:13:13 10° NE visible
29 Jan - 23:49:25 10° NNW 23:54:14 27° NNE 23:59:21 10° E night (unlit)
30 Jan - 01:32:32 10° NW 01:38:27 68° NE 01:44:44 10° SE night (unlit)
30 Jan - 03:16:07 10° NW 03:21:25 33° WSW 03:26:57 10° S night (unlit)
30 Jan - 16:21:26 10° SE 16:23:34 13° ESE 16:25:47 10° ENE daylight
30 Jan - 18:00:45 10° SSW 18:05:36 70° SE 18:11:04 10° NE visible
30 Jan - 19:44:40 10° W 19:49:17 33° NNW 19:54:24 10° NNE visible
30 Jan - 21:30:19 10° NW 21:34:12 19° N 21:38:20 10° NE visible
30 Jan - 23:14:50 10° NNW 23:19:23 24° NNE 23:24:14 10° ENE night (unlit)
31 Jan - 00:58:03 10° NW 01:03:50 54° NE 01:10:00 10° ESE night (unlit)
31 Jan - 02:41:23 10° NW 02:47:03 43° WSW 02:52:59 10° S night (unlit)
31 Jan - 17:26:28 10° SSW 17:31:10 51° ESE 17:36:27 10° NE visible
31 Jan - 19:09:47 10° WSW 19:14:34 40° NW 19:19:52 10° NNE visible
31 Jan - 20:55:19 10° WNW 20:59:17 20° N 21:03:33 10° NE visible
31 Jan - 22:40:12 10° NW 22:44:31 22° NNE 22:49:06 10° ENE visible
01 Feb - 00:23:33 10° NNW 00:29:10 44° NE 00:35:09 10° ESE night (unlit)
01 Feb - 02:06:45 10° NW 02:12:38 57° WSW 02:18:49 10° SSE night (unlit)
01 Feb - 03:52:14 10° WNW 03:54:48 13° WSW 03:57:24 10° SW night (unlit)
01 Feb - 16:52:21 10° S 16:56:49 37° ESE 17:01:45 10° NE visible
01 Feb - 18:35:00 10° WSW 18:39:53 50° NW 18:45:21 10° NE visible
01 Feb - 20:20:16 10° WNW 20:24:24 22° NNW 20:28:50 10° NE visible
01 Feb - 22:05:30 10° NW 22:09:37 20° N 22:14:00 10° ENE visible
01 Feb - 23:49:02 10° NNW 23:54:27 37° NE 00:00:12 10° E night (unlit)
02 Feb - 01:32:11 10° NW 01:38:10 74° SW 01:44:30 10° SSE night (unlit)
02 Feb - 03:16:39 10° WNW 03:20:36 18° WSW 03:24:38 10° SW night (unlit)
02 Feb - 16:18:27 10° SSE 16:22:31 27° ESE 16:26:58 10° NE daylight
02 Feb - 18:00:17 10° SW 18:05:15 65° NW 18:10:49 10° NE visible
02 Feb - 19:45:13 10° WNW 19:49:32 24° NNW 19:54:12 10° NNE visible
02 Feb - 21:30:42 10° NW 21:34:42 19° N 21:38:57 10° NE visible
02 Feb - 23:14:31 10° NNW 23:19:42 31° NNE 23:25:11 10° E night (unlit)
03 Feb - 00:57:38 10° NW 01:03:40 87° NE 01:10:01 10° SE night (unlit)
03 Feb - 02:41:35 10° WNW 02:46:21 24° WSW 02:51:15 10° SSW night (unlit)
03 Feb - 15:44:50 10° SSE 15:48:17 19° ESE 15:51:59 10° ENE daylight
03 Feb - 17:25:42 10° SW 17:30:41 85° NW 17:36:17 10° NE visible
03 Feb - 19:10:12 10° W 19:14:42 28° NNW 19:19:37 10° NNE visible
03 Feb - 20:55:50 10° NW 20:59:46 19° N 21:03:57 10° NE visible
03 Feb - 22:39:58 10° NNW 22:44:54 27° NNE 22:50:06 10° E visible
04 Feb - 00:23:07 10° NW 00:29:05 70° NE 00:35:25 10° SE night (unlit)
04 Feb - 02:06:44 10° NW 02:12:02 32° WSW 02:17:32 10° S night (unlit)
04 Feb - 15:11:41 10° SE 15:14:06 14° ESE 15:16:37 10° ENE daylight
04 Feb - 16:51:15 10° SSW 16:56:10 73° SE 17:01:43 10° NE daylight
04 Feb - 18:35:14 10° W 18:39:54 33° NNW 18:45:03 10° NNE visible
04 Feb - 20:20:53 10° NW 20:24:50 19° N 20:29:02 10° NE visible
04 Feb - 22:05:24 10° NNW 22:10:03 24° NNE 22:14:58 10° ENE visible
04 Feb - 23:48:36 10° NW 23:54:28 56° NE 00:00:40 10° ESE night (unlit)
05 Feb - 01:32:00 10° NW 01:37:40 42° WSW 01:43:34 10° S night (unlit)
05 Feb - 16:16:56 10° SSW 16:21:44 53° ESE 16:27:05 10° NE daylight
05 Feb - 18:00:20 10° WSW 18:05:09 40° NW 18:10:30 10° NNE visible
05 Feb - 19:45:53 10° WNW 19:49:55 20° N 19:54:14 10° NE visible
05 Feb - 21:30:45 10° NW 21:35:10 22° NNE 21:39:50 10° ENE visible
05 Feb - 23:14:06 10° NW 23:19:48 45° NE 23:25:50 10° ESE visible
06 Feb - 00:57:20 10° NW 01:03:15 56° WSW 01:09:25 10° SSE night (unlit)
06 Feb - 02:42:59 10° WNW 02:45:22 12° WSW 02:47:46 10° SW night (unlit)
06 Feb - 15:42:47 10° S 15:47:21 39° ESE 15:52:24 10° NE daylight
06 Feb - 17:25:31 10° WSW 17:30:28 49° NW 17:35:59 10° NE visible
06 Feb - 19:10:50 10° WNW 19:15:01 22° NNW 19:19:30 10° NE visible
06 Feb - 20:56:02 10° NW 21:00:15 21° N 21:04:43 10° ENE visible
06 Feb - 22:39:35 10° NNW 22:45:05 38° NE 22:50:53 10° ESE visible
